Change the Weather History Date:

Thursday, March 6, 2014

  Actual Average Record
Temperature  
Mean Temperature 78 °F -  
Max Temperature 88 °F 79 °F 95 °F (2008)
Min Temperature 67 °F 59 °F 53 °F (2001)
Cooling Degree Days 12    
Growing Degree Days 28 (Base 50)    
Moisture  
Dew Point 62 °F    
Average Humidity 62    
Maximum Humidity 100    
Minimum Humidity 30    
Precipitation  
Precipitation 0.00 in - - ()
Sea Level Pressure  
Sea Level Pressure 29.95 in    
Wind  
Wind Speed 7 mph ()    
Max Wind Speed 24 mph    
Max Gust Speed 32 mph    
Visibility 8.3 miles    
Events      
Averages and records for this station are not official NWS values.
T = Trace of Precipitation, MM = Missing Value Source: Averaged Metar Reports

Daily Weather History Graph

Daily Weather History Graph

Search for Another Location

Airport or City:

Trip Planner

Search our weather history database for the weather conditions in past years. The results will help you decide how hot, cold, wet, or windy it might be!

Date:

Astronomy

Mar. 06, 2014 Rise Set
Actual Time 6:26 AM CST 6:20 PM CST
Civil Twilight 6:04 AM CST 6:41 PM CST
Nautical Twilight 5:39 AM CST 7:07 PM CST
Astronomical Twilight 5:14 AM CST 7:32 PM CST
Moon 10:25 AM CST (3/6) 11:33 PM CST (3/6)
Length of Visible Light 12h 37m
Length of Day
11h 53m
Waxing Crescent, 32% of the Moon is Illuminated
Mar 6
Waxing Crescent
Mar 8
First Quarter
Mar 16
Full
Mar 23
Last Quarter
Mar 30
New

Hourly Weather History & Observations

Time (CST) Temp. Heat Index Dew Point Humidity Pressure Visibility Wind Dir Wind Speed Gust Speed Precip Events Conditions
12:44 AM 69.8 °F - 60.8 °F 73% 29.98 in 10.0 mi West 4.6 mph - N/A   Clear
5:43 AM 69 °F - 63 °F 77% 29.92 in 9 mi SSW 2.2 mph - -  
5:45 AM 62.6 °F - 57.2 °F 82% 29.92 in 6.0 mi Calm Calm - N/A   Clear
6:49 AM 62.6 °F - 59.0 °F 88% 30.03 in 6.0 mi Calm Calm - N/A   Clear
7:44 AM 69.8 °F - 60.8 °F 73% 30.04 in 7.0 mi Calm Calm - N/A   Clear
8:43 AM 77.0 °F - 62.6 °F 61% 29.95 in 7.0 mi East 2.3 mph - N/A   Clear
8:45 AM 78 °F - 61 °F 46% 29.97 in 9 mi SW 2.2 mph - -  
9:41 AM 80.6 °F 81.5 °F 60.8 °F 51% 30.04 in 7.0 mi Calm Calm - N/A   Clear
10:43 AM 84.2 °F 83.8 °F 59.0 °F 42% 30.03 in 7.0 mi SSE 4.6 mph - N/A   Partly Cloudy
11:40 AM 84.2 °F 83.8 °F 59.0 °F 42% 29.89 in 7.0 mi East 2.3 mph - N/A   Partly Cloudy
11:45 AM 86 °F - 64 °F 39% 29.93 in 9 mi NW 8.9 mph - -   Scattered Clouds
12:44 PM 95.0 °F 94.4 °F 59.0 °F 30% 29.94 in 8.0 mi NW 16.1 mph - N/A   Scattered Clouds
1:46 PM 89.6 °F 88.9 °F 59.0 °F 36% 29.92 in 8.0 mi NW 13.8 mph - N/A   Scattered Clouds
2:43 PM 87.8 °F 87.1 °F 59.0 °F 38% 29.80 in 8.0 mi North 21.9 mph - N/A   Scattered Clouds
2:45 PM 84 °F - 84 °F 100% 29.83 in 9 mi NNW 11.2 mph - -   Scattered Clouds
3:52 PM 84.2 °F 84.4 °F 60.8 °F 45% 29.89 in 8.0 mi WNW 24.2 mph - N/A   Scattered Clouds
4:50 PM 77.0 °F - 62.6 °F 61% 29.93 in 8.0 mi NW 20.7 mph 32.2 mph N/A   Scattered Clouds
5:40 PM 75 °F - 64 °F 62% 29.85 in 9 mi 4.5 mph - -   Scattered Clouds
5:47 PM 75.2 °F - 62.6 °F 65% 29.87 in 8.0 mi NW 24.2 mph - N/A   Scattered Clouds
6:45 PM 73.4 °F - 62.6 °F 69% 29.97 in 8.0 mi WNW 18.4 mph - N/A   Scattered Clouds
7:44 PM 71.6 °F - 62.6 °F 73% 29.99 in 10.0 mi NW 12.7 mph 24.2 mph N/A   Partly Cloudy
8:45 PM 71 °F - 63 °F 68% 29.93 in 9 mi NNW 11.2 mph - -   Scattered Clouds
8:47 PM 71.6 °F - 60.8 °F 69% 29.93 in 10.0 mi NW 13.8 mph 26.5 mph N/A   Partly Cloudy
9:40 PM 71.6 °F - 60.8 °F 69% 30.03 in 10.0 mi NW 15.0 mph 27.6 mph N/A   Partly Cloudy
10:41 PM 71.6 °F - 60.8 °F 69% 30.06 in 10.0 mi NW 21.9 mph - N/A   Scattered Clouds
11:45 PM 68 °F - 62 °F 74% 30.01 in 9 mi 4.5 mph - -   Partly Cloudy